Location: Brabourne
(51.1333°N, 1.0000°E)
Time: 07:56:07
(UTC+00:00)

EP 2 - Pass Details

Date: 20 June 2021
Orbit: 377 x 1615 km, 63.3° (Epoch: 14 October)

Event Time Altitude Azimuth Distance (km) Brightness Sun altitude
Exits shadow 00:44:04 35° 210° (SSW) 640 5.1 -14.7°
Maximum altitude 00:45:10 75° 133° (SE) 400 4.5 -14.7°
Drops below altitude 10° 00:48:16 10° 47° (NE) 1,461 8.3 -14.6°
Sets 00:50:26 0° 46° (NE) 2,405 9.6 -14.5°
